DW9408 Weather Reports


Display with metric or nautical units.
time (UTC)temp
F
wind
direction
speed
MPH
gust
MPH
rain 1hr
in
rain 24hr
in
rain mn
in
humidity
%
barometer
mb
20260905000226 84 257 0.0 0.0 0.00 0.00 0.00 88 1014.3
20260904235723 85 257 0.0 0.0 0.00 0.00 0.00 87 1014.3
20260904235222 85 257 0.0 0.0 0.00 0.00 0.00 87 1014.2
20260904234948 85 257 0.0 0.0 0.00 0.00 0.00 85 1014.2
20260904234449 86 257 0.0 0.0 0.00 0.00 0.00 84 1014.2
20260904233719 87 257 0.0 0.0 0.00 0.00 0.00 83 1014.1
20260904233219 87 257 0.0 0.0 0.00 0.00 0.00 82 1014.1
20260904232718 88 257 0.0 0.0 0.00 0.00 0.00 81 1014.0
20260904232214 89 257 0.0 0.0 0.00 0.00 0.00 81 1013.9
20260904231706 88 257 0.0 0.0 0.00 0.00 0.00 80 1013.8
20260904230654 89 257 0.0 0.0 0.00 0.00 0.00 78 1013.8
20260904230155 89 257 0.0 0.0 0.00 0.00 0.00 76 1013.7
20260904225652 90 257 0.0 0.0 0.00 0.00 0.00 75 1013.7
20260904225151 92 257 0.0 0.0 0.00 0.00 0.00 74 1013.8
20260904224653 92 257 0.0 0.0 0.00 0.00 0.00 76 1013.9
20260904224151 92 257 0.0 0.0 0.00 0.00 0.00 75 1013.8
20260904223648 92 257 0.0 0.0 0.00 0.00 0.00 73 1013.8
20260904223255 92 257 0.0 0.0 0.00 0.00 0.00 71 1013.9
20260904223234 92 257 0.0 0.0 0.00 0.00 0.00 72 1013.9
20260904222147 93 257 0.0 0.0 0.00 0.00 0.00 71 1013.9
20260904221645 94 257 0.0 0.0 0.00 0.00 0.00 71 1014.0
20260904221141 94 257 0.0 0.0 0.00 0.00 0.00 69 1014.0
20260904220642 94 257 0.0 0.0 0.00 0.00 0.00 70 1014.1
20260904220415 94 257 0.0 0.0 0.00 0.00 0.00 66 1014.0
20260904215640 94 257 0.0 0.0 0.00 0.00 0.00 69 1014.0
20260904215411 94 257 0.0 0.0 0.00 0.00 0.00 69 1014.1
20260904214638 93 257 0.0 0.0 0.00 0.00 0.00 72 1014.0
20260904214138 93 257 0.0 0.0 0.00 0.00 0.00 69 1014.0
20260904213637 93 257 0.0 0.0 0.00 0.00 0.00 70 1014.1
20260904213135 93 257 0.0 0.0 0.00 0.00 0.00 71 1014.1
20260904212909 92 257 0.0 0.0 0.00 0.00 0.00 70 1014.1
20260904212129 92 257 0.0 0.0 0.00 0.00 0.00 70 1014.1
20260904211623 93 257 0.0 0.0 0.00 0.00 0.00 65 1014.0
20260904211117 92 257 0.0 0.0 0.00 0.00 0.00 70 1014.0
20260904210611 91 257 0.0 0.0 0.00 0.00 0.00 74 1014.1
20260904210335 91 257 0.0 0.0 0.00 0.00 0.00 77 1014.1
20260904205605 91 257 0.0 0.0 0.00 0.00 0.00 75 1014.1
20260904204604 91 257 0.0 0.0 0.00 0.00 0.00 74 1014.2
20260904204102 91 257 0.0 0.0 0.00 0.00 0.00 72 1014.1
20260904203832 92 257 0.0 0.0 0.00 0.00 0.00 72 1014.2
20260904203100 94 257 0.0 0.0 0.00 0.00 0.00 67 1014.3
20260904202919 94 257 0.0 1.0 0.00 0.00 0.00 64 1014.2
20260904201558 96 250 0.0 1.0 0.00 0.00 0.00 58 1014.3
20260904201059 96 250 1.0 4.0 0.00 0.00 0.00 55 1014.4
20260904200558 96 250 1.0 4.0 0.00 0.00 0.00 55 1014.5
20260904200059 96 255 0.0 4.0 0.00 0.00 0.00 55 1014.5
20260904195555 96 287 0.0 4.0 0.00 0.00 0.00 54 1014.6
20260904195054 96 287 1.0 5.0 0.00 0.00 0.00 53 1014.6
20260904194554 96 288 1.0 5.0 0.00 0.00 0.00 55 1014.7
20260904194054 96 289 0.0 4.0 0.00 0.00 0.00 57 1014.9
20260904193555 96 327 0.0 3.0 0.00 0.00 0.00 55 1014.9
20260904193053 96 327 0.0 3.0 0.00 0.00 0.00 56 1015.1
20260904192825 95 327 0.0 2.0 0.00 0.00 0.00 55 1015.1
20260904192053 95 329 0.0 1.0 0.00 0.00 0.00 54 1015.2
20260904191554 95 328 0.0 2.0 0.00 0.00 0.00 60 1015.3
20260904191051 94 329 0.0 3.0 0.00 0.00 0.00 56 1015.4
20260904190552 94 5 1.0 5.0 0.00 0.00 0.00 58 1015.5
20260904190325 95 5 1.0 5.0 0.00 0.00 0.00 59 1015.7
20260904185551 95 30 0.0 4.0 0.00 0.00 0.00 61 1015.6
20260904185049 95 227 0.0 2.0 0.00 0.00 0.00 57 1015.6
20260904184549 94 5 0.0 2.0 0.00 0.00 0.00 59 1015.6
20260904184047 94 5 0.0 2.0 0.00 0.00 0.00 62 1015.7
20260904183545 94 85 0.0 3.0 0.00 0.00 0.00 59 1015.7
20260904183045 94 337 0.0 4.0 0.00 0.00 0.00 61 1015.8
20260904182546 94 321 0.0 4.0 0.00 0.00 0.00 59 1016.0
20260904182045 94 214 0.0 2.0 0.00 0.00 0.00 61 1016.0
20260904181544 94 214 0.0 4.0 0.00 0.00 0.00 61 1016.1
20260904181041 94 180 0.0 4.0 0.00 0.00 0.00 67 1016.1
20260904180537 93 227 0.0 1.0 0.00 0.00 0.00 64 1016.2
20260904180037 93 227 0.0 1.0 0.00 0.00 0.00 67 1016.2
20260904175536 93 220 0.0 3.0 0.00 0.00 0.00 67 1016.3
20260904175038 93 220 0.0 3.0 0.00 0.00 0.00 68 1016.4
20260904174533 93 248 0.0 2.0 0.00 0.00 0.00 69 1016.5
20260904174026 93 246 0.0 1.0 0.00 0.00 0.00 66 1016.5
20260904173521 93 246 0.0 1.0 0.00 0.00 0.00 67 1016.5
20260904173015 92 246 0.0 2.0 0.00 0.00 0.00 72 1016.6
20260904172508 92 246 0.0 2.0 0.00 0.00 0.00 68 1016.6
20260904172002 92 246 0.0 2.0 0.00 0.00 0.00 70 1016.7
20260904171456 92 243 0.0 0.0 0.00 0.00 0.00 70 1016.7
20260904170951 92 243 0.0 0.0 0.00 0.00 0.00 68 1016.8
20260904170445 91 243 0.0 0.0 0.00 0.00 0.00 72 1016.9
20260904165939 91 243 0.0 0.0 0.00 0.00 0.00 71 1016.9
20260904165433 90 243 0.0 1.0 0.00 0.00 0.00 70 1016.9
20260904164927 90 243 0.0 1.0 0.00 0.00 0.00 72 1017.0
20260904164659 90 243 0.0 1.0 0.00 0.00 0.00 77 1017.0
20260904163914 90 243 0.0 0.0 0.00 0.00 0.00 74 1017.0
20260904163410 90 243 0.0 1.0 0.00 0.00 0.00 76 1017.1
20260904162359 89 243 0.0 4.0 0.00 0.00 0.00 75 1017.3
20260904161850 89 245 0.0 0.0 0.00 0.00 0.00 76 1017.3
20260904161346 89 240 0.0 0.0 0.00 0.00 0.00 78 1017.3
20260904160839 88 229 0.0 2.0 0.00 0.00 0.00 77 1017.3
20260904160332 88 229 0.0 2.0 0.00 0.00 0.00 77 1017.4
20260904160057 88 46 0.0 0.0 0.00 0.00 0.00 77 1017.5
20260904155321 88 46 0.0 0.0 0.00 0.00 0.00 76 1017.5
20260904155048 88 45 0.0 0.0 0.00 0.00 0.00 76 1017.5
20260904154318 88 53 0.0 0.0 0.00 0.00 0.00 78 1017.4
20260904153818 87 28 0.0 0.0 0.00 0.00 0.00 76 1017.5
20260904153317 87 28 0.0 0.0 0.00 0.00 0.00 77 1017.5
20260904152817 87 28 0.0 0.0 0.00 0.00 0.00 77 1017.5
20260904152315 87 28 0.0 0.0 0.00 0.00 0.00 78 1017.5
20260904151815 87 325 0.0 0.0 0.00 0.00 0.00 78 1017.4
20260904151316 87 325 0.0 0.0 0.00 0.00 0.00 77 1017.5
20260904150814 86 325 0.0 0.0 0.00 0.00 0.00 78 1017.5
20260904150045 85 325 0.0 3.0 0.00 0.00 0.00 84 1017.4
20260904145313 85 325 0.0 3.0 0.00 0.00 0.00 83 1017.4
20260904144819 84 286 0.0 0.0 0.00 0.00 0.00 84 1017.4
20260904144312 84 302 0.0 0.0 0.00 0.00 0.00 84 1017.5
20260904143308 83 355 0.0 0.0 0.00 0.00 0.00 84 1017.4
20260904142808 83 314 0.0 0.0 0.00 0.00 0.00 84 1017.4
20260904142308 83 314 0.0 0.0 0.00 0.00 0.00 85 1017.4
20260904141802 82 313 0.0 0.0 0.00 0.00 0.00 85 1017.4
20260904141256 82 313 0.0 0.0 0.00 0.00 0.00 88 1017.4
20260904140750 81 313 0.0 0.0 0.00 0.00 0.00 87 1017.4
20260904140244 81 313 0.0 0.0 0.00 0.00 0.00 88 1017.4
20260904135737 80 314 0.0 0.0 0.00 0.00 0.00 89 1017.5
20260904135232 80 314 0.0 0.0 0.00 0.00 0.00 91 1017.4
20260904134726 79 314 0.0 0.0 0.00 0.00 0.00 93 1017.3
20260904134220 79 314 0.0 0.0 0.00 0.00 0.00 95 1017.4
20260904133714 78 314 0.0 0.0 0.00 0.00 0.00 95 1017.5
20260904133207 77 314 0.0 0.0 0.00 0.00 0.00 96 1017.5
20260904132704 77 314 0.0 0.0 0.00 0.00 0.00 98 1017.5
20260904132156 76 314 0.0 0.0 0.00 0.00 0.00 99 1017.5
20260904131655 76 314 0.0 0.0 0.00 0.00 0.00 100 1017.5
20260904131155 76 314 0.0 0.0 0.00 0.00 0.00 100 1017.4
20260904130927 75 314 0.0 0.0 0.00 0.00 0.00 100 1017.4
20260904130156 75 314 0.0 0.0 0.00 0.00 0.00 100 1017.4
20260904125654 75 314 0.0 0.0 0.00 0.00 0.00 100 1017.4
20260904125156 75 314 0.0 0.0 0.00 0.00 0.00 100 1017.4
20260904124652 74 314 0.0 0.0 0.00 0.00 0.00 100 1017.4
20260904124151 73 314 0.0 0.0 0.00 0.00 0.00 100 1017.5
20260904123651 73 314 0.0 0.0 0.00 0.00 0.00 100 1017.5
20260904123152 72 314 0.0 0.0 0.00 0.00 0.00 100 1017.5
20260904122653 72 314 0.0 0.0 0.00 0.00 0.00 100 1017.5
20260904122151 71 314 0.0 0.0 0.00 0.00 0.00 100 1017.5
20260904121650 70 314 0.0 0.0 0.00 0.00 0.00 100 1017.4
20260904121151 70 314 0.0 0.0 0.00 0.00 0.00 100 1017.4
20260904120650 70 314 0.0 0.0 0.00 0.00 0.00 100 1017.4
20260904120150 70 314 0.0 0.0 0.00 0.00 0.00 100 1017.3
20260904115648 69 314 0.0 0.0 0.00 0.00 0.00 100 1017.3
20260904115149 69 314 0.0 0.0 0.00 0.00 0.00 100 1017.2
20260904114919 69 314 0.0 0.0 0.00 0.00 0.00 100 1017.1
20260904114149 69 314 0.0 0.0 0.00 0.00 0.00 100 1017.1
20260904113649 69 314 0.0 0.0 0.00 0.00 0.00 100 1017.1
20260904113423 69 314 0.0 0.0 0.00 0.00 0.00 100 1017.0
20260904112648 69 314 0.0 0.0 0.00 0.00 0.00 100 1017.0
20260904112150 69 314 0.0 0.0 0.00 0.00 0.00 100 1017.0
20260904111650 69 314 0.0 0.0 0.00 0.00 0.00 100 1017.0
20260904111148 69 314 0.0 0.0 0.00 0.00 0.00 100 1016.9
20260904110648 69 314 0.0 0.0 0.00 0.00 0.00 100 1016.8
20260904110150 69 314 0.0 0.0 0.00 0.00 0.00 100 1016.8
20260904105650 69 314 0.0 0.0 0.00 0.00 0.00 100 1016.7
20260904105415 70 314 0.0 0.0 0.00 0.00 0.00 100 1016.7
20260904104638 70 314 0.0 0.0 0.00 0.00 0.00 100 1016.6
20260904104132 70 314 0.0 0.0 0.00 0.00 0.00 100 1016.5
20260904103626 70 314 0.0 0.0 0.00 0.00 0.00 100 1016.5
20260904103120 70 314 0.0 0.0 0.00 0.00 0.00 100 1016.6
20260904102614 70 314 0.0 0.0 0.00 0.00 0.00 100 1016.7
20260904102108 71 314 0.0 0.0 0.00 0.00 0.00 100 1016.6
20260904101604 71 314 0.0 0.0 0.00 0.00 0.00 100 1016.5
20260904101329 70 314 0.0 0.0 0.00 0.00 0.00 100 1016.5
20260904100559 70 314 0.0 0.0 0.00 0.00 0.00 100 1016.6
20260904100044 71 314 0.0 0.0 0.00 0.00 0.00 100 1016.6
20260904095541 71 314 0.0 0.0 0.00 0.00 0.00 100 1016.5
20260904095032 71 314 0.0 0.0 0.00 0.00 0.00 100 1016.4
20260904094527 71 314 0.0 0.0 0.00 0.00 0.00 100 1016.4
20260904094021 71 314 0.0 0.0 0.00 0.00 0.00 100 1016.5
20260904093746 71 314 0.0 0.0 0.00 0.00 0.00 100 1016.5
20260904093009 71 314 0.0 0.0 0.00 0.00 0.00 100 1016.5
20260904092502 71 314 0.0 0.0 0.00 0.00 0.00 100 1016.4
20260904092228 71 314 0.0 0.0 0.00 0.00 0.00 100 1016.4
20260904091501 71 314 0.0 0.0 0.00 0.00 0.00 100 1016.4
20260904090957 71 314 0.0 0.0 0.00 0.00 0.00 100 1016.4
20260904090457 71 314 0.0 0.0 0.00 0.00 0.00 100 1016.5
20260904085948 71 314 0.0 0.0 0.00 0.00 0.00 100 1016.4
20260904085438 71 314 0.0 0.0 0.00 0.00 0.00 100 1016.4
20260904084936 71 314 0.0 0.0 0.00 0.00 0.00 100 1016.4
20260904084432 71 314 0.0 0.0 0.00 0.00 0.00 100 1016.3
20260904083922 71 314 0.0 0.0 0.00 0.00 0.00 100 1016.3
20260904083418 71 314 0.0 0.0 0.00 0.00 0.00 100 1016.3
20260904083157 72 314 0.0 0.0 0.00 0.00 0.00 100 1016.3
20260904082652 72 314 0.0 0.0 0.00 0.00 0.00 100 1016.3
20260904082409 72 314 0.0 0.0 0.00 0.00 0.00 100 1016.3
20260904081859 72 314 0.0 0.0 0.00 0.00 0.00 100 1016.3
20260904081343 72 314 0.0 0.0 0.00 0.00 0.00 100 1016.3
20260904080836 72 314 0.0 0.0 0.00 0.00 0.00 100 1016.3
20260904080326 72 314 0.0 0.0 0.00 0.00 0.00 100 1016.2
20260904075820 72 314 0.0 0.0 0.00 0.00 0.00 100 1016.1
20260904075314 72 314 0.0 0.0 0.00 0.00 0.00 100 1016.2
20260904074808 72 314 0.0 0.0 0.00 0.00 0.00 100 1016.1
20260904074302 72 314 0.0 0.0 0.00 0.00 0.00 100 1016.2
20260904073756 72 314 0.0 0.0 0.00 0.00 0.00 100 1016.1
20260904073250 72 314 0.0 0.0 0.00 0.00 0.00 100 1016.1
20260904072744 72 314 0.0 0.0 0.00 0.00 0.00 100 1016.1
20260904072247 72 314 0.0 0.0 0.00 0.00 0.00 100 1016.1
20260904071748 72 314 0.0 0.0 0.00 0.00 0.00 100 1016.1
20260904071236 73 314 0.0 0.0 0.00 0.00 0.00 100 1016.0
20260904071013 73 314 0.0 0.0 0.00 0.00 0.00 100 1016.0
20260904070226 73 314 0.0 0.0 0.00 0.00 0.00 100 1016.1
20260904065714 73 314 0.0 0.0 0.00 0.00 0.00 100 1016.1
20260904065213 73 314 0.0 0.0 0.00 0.00 0.00 100 1016.2
20260904064714 73 314 0.0 0.0 0.00 0.00 0.00 100 1016.2
20260904064214 73 314 0.0 0.0 0.00 0.00 0.00 100 1016.3
20260904063713 73 314 0.0 0.0 0.00 0.00 0.00 100 1016.4
20260904063211 73 314 0.0 0.0 0.00 0.00 0.00 100 1016.4
20260904062708 74 314 0.0 0.0 0.00 0.00 0.00 100 1016.4
20260904062209 74 314 0.0 0.0 0.00 0.00 0.00 100 1016.5
20260904061709 74 314 0.0 0.0 0.00 0.00 0.00 100 1016.6
20260904061439 74 314 0.0 0.0 0.00 0.00 0.00 100 1016.7
20260904060704 74 314 0.0 0.0 0.00 0.00 0.00 100 1016.6
20260904060204 74 314 0.0 0.0 0.00 0.00 0.00 100 1016.7
20260904055701 74 314 0.0 0.0 0.00 0.00 0.00 100 1016.8
20260904055159 74 314 0.0 0.0 0.00 0.00 0.00 100 1016.9
20260904054930 74 314 0.0 0.0 0.00 0.00 0.00 100 1016.9
20260904054159 74 314 0.0 0.0 0.00 0.00 0.00 100 1017.0
20260904053656 74 314 0.0 0.0 0.00 0.00 0.00 99 1016.9
20260904053157 74 314 0.0 0.0 0.00 0.00 0.00 99 1017.0
20260904052656 74 314 0.0 0.0 0.00 0.00 0.00 100 1017.1
20260904052156 74 314 0.0 0.0 0.00 0.00 0.00 99 1017.1
20260904051654 74 314 0.0 0.0 0.00 0.00 0.00 99 1017.1
20260904051155 75 314 0.0 0.0 0.00 0.00 0.00 99 1017.2
20260904050653 75 314 0.0 0.0 0.00 0.00 0.00 99 1017.2
20260904050155 75 314 0.0 0.0 0.00 0.00 0.00 100 1017.2
20260904045654 75 314 0.0 0.0 0.00 0.00 0.00 100 1017.3
20260904045153 75 314 0.0 0.0 0.00 0.00 0.00 100 1017.3
20260904044927 75 314 0.0 0.0 0.00 0.00 0.00 99 1017.2
20260904044149 75 314 0.0 0.0 0.00 0.00 0.00 100 1017.3
20260904043650 75 314 0.0 0.0 0.00 0.00 0.00 100 1017.2
20260904043151 75 314 0.0 0.0 0.00 0.00 0.00 100 1017.2
20260904042651 75 314 0.0 0.0 0.00 0.00 0.00 100 1017.3
20260904042149 75 314 0.0 0.0 0.00 0.00 0.00 99 1017.2
20260904041921 75 314 0.0 0.0 0.00 0.00 0.00 99 1017.2
20260904041420 75 314 0.0 0.0 0.00 0.00 0.00 99 1017.3
20260904040647 76 314 0.0 0.0 0.00 0.00 0.00 99 1017.3
20260904040146 76 314 0.0 0.0 0.00 0.00 0.00 99 1017.2
20260904035916 76 314 0.0 0.0 0.00 0.00 0.00 99 1017.3
20260904035142 76 314 0.0 0.0 0.00 0.00 0.00 99 1017.3
20260904034646 76 314 0.0 0.0 0.00 0.00 0.00 99 1017.2
20260904034140 76 314 0.0 0.0 0.00 0.00 0.00 99 1017.3
20260904033634 76 314 0.0 0.0 0.00 0.00 0.00 99 1017.3
20260904033128 76 314 0.0 0.0 0.00 0.00 0.00 99 1017.2
20260904032623 77 314 0.0 0.0 0.00 0.00 0.00 99 1017.2
20260904032347 77 314 0.0 0.0 0.00 0.00 0.00 99 1017.3
20260904031610 77 314 0.0 0.0 0.00 0.00 0.00 99 1017.4
20260904031104 77 314 0.0 0.0 0.00 0.00 0.00 99 1017.5
20260904030052 77 314 0.0 0.0 0.00 0.00 0.00 99 1017.5
20260904025545 78 314 0.0 0.0 0.00 0.00 0.00 99 1017.5
20260904025311 78 314 0.0 0.0 0.00 0.00 0.00 99 1017.5
20260904024534 78 314 0.0 0.0 0.00 0.00 0.00 99 1017.6
20260904024028 78 314 0.0 0.0 0.00 0.00 0.00 99 1017.6
20260904023522 78 314 0.0 0.0 0.00 0.00 0.00 99 1017.7
20260904023016 78 314 0.0 0.0 0.00 0.00 0.00 98 1017.7
20260904022510 78 314 0.0 0.0 0.00 0.00 0.00 99 1017.6
20260904022004 78 314 0.0 0.0 0.00 0.00 0.00 98 1017.5
20260904021458 78 314 0.0 0.0 0.00 0.00 0.00 98 1017.6
20260904020952 78 314 0.0 0.0 0.00 0.00 0.00 98 1017.5
20260904020446 78 314 0.0 0.0 0.00 0.00 0.00 98 1017.5
20260904015940 78 314 0.0 0.0 0.00 0.00 0.00 98 1017.5
20260904015434 78 314 0.0 0.0 0.00 0.00 0.00 98 1017.4
20260904014928 79 314 0.0 0.0 0.00 0.00 0.00 97 1017.3
20260904014422 79 314 0.0 0.0 0.00 0.00 0.00 97 1017.4
20260904013916 79 314 0.0 0.0 0.00 0.00 0.00 97 1017.2
20260904013410 79 314 0.0 0.0 0.00 0.00 0.00 97 1017.2
20260904013135 79 314 0.0 0.0 0.00 0.00 0.00 96 1017.1
20260904012358 80 314 0.0 0.0 0.00 0.00 0.00 97 1017.0
20260904011852 80 314 0.0 0.0 0.00 0.00 0.00 97 1016.9
20260904011618 80 314 0.0 0.0 0.00 0.00 0.00 96 1016.8
20260904010839 80 314 0.0 0.0 0.00 0.00 0.00 97 1016.7
20260904010604 80 314 0.0 0.0 0.00 0.00 0.00 96 1016.7
20260904005827 80 314 0.0 0.0 0.00 0.00 0.00 96 1016.6
20260904005321 81 314 0.0 0.0 0.00 0.00 0.00 95 1016.6
20260904004815 81 314 0.0 0.0 0.00 0.00 0.00 96 1016.5
20260904004309 81 314 0.0 0.0 0.00 0.00 0.00 96 1016.3
20260904003804 81 314 0.0 0.0 0.00 0.00 0.00 95 1016.2
20260904003258 81 314 0.0 0.0 0.00 0.00 0.00 94 1016.2
20260904002752 82 314 0.0 0.0 0.00 0.00 0.00 94 1016.1
20260904002246 82 314 0.0 0.0 0.00 0.00 0.00 93 1015.8
20260904001743 82 314 0.0 0.0 0.00 0.00 0.00 93 1015.8
20260904001240 83 314 0.0 0.0 0.00 0.00 0.00 92 1015.7
20260904000740 83 314 0.0 0.0 0.00 0.00 0.00 91 1015.6